owner,sensor,date,latitude,longitude,vertical_datum,wind_speed,wind_to_direction,wind_speed_of_gust,qcFlag 
COMPS,ioos:station:USF.COMPS:TAR:1,2014-10-01T00:00:00Z,28.1560,-82.7580,7.0,0.78,34.11,1.07,'1111122,1111122,1111122' 
COMPS,ioos:station:USF.COMPS:TAR:1,2014-10-01T00:06:00Z,28.1560,-82.7580,7.0,0.5,46.14,0.97,'1111122,1111122,1111122' 
COMPS,ioos:station:USF.COMPS:TAR:1,2014-10-01T00:12:00Z,28.1560,-82.7580,7.0,0.38,61.45,1.07,'1111122,1111122,1111122' 
COMPS,ioos:station:USF.COMPS:TAR:1,2014-10-01T00:18:00Z,28.1560,-82.7580,7.0,0.93,83.55,1.46,'1111122,1111122,1111122' 
COMPS,ioos:station:USF.COMPS:TAR:1,2014-10-01T00:24:00Z,28.1560,-82.7580,7.0,0.72,42.1,1.17,'1111122,1111122,1111122' 
COMPS,ioos:station:USF.COMPS:TAR:1,2014-10-01T00:30:00Z,28.1560,-82.7580,7.0,0.59,45.09,1.07,'1111122,1111122,1111122' 
COMPS,ioos:station:USF.COMPS:TAR:1,2014-10-01T00:36:00Z,28.1560,-82.7580,7.0,0.37,72.68,0.97,'1111122,1111122,1111122' 
COMPS,ioos:station:USF.COMPS:TAR:1,2014-10-01T00:42:00Z,28.1560,-82.7580,7.0,0.47,102.69,1.17,'1111122,1111122,1111122' 
COMPS,ioos:station:USF.COMPS:TAR:1,2014-10-01T00:48:00Z,28.1560,-82.7580,7.0,0.5,75.06,0.88,'1111122,1111122,1111122' 
COMPS,ioos:station:USF.COMPS:TAR:1,2014-10-01T00:54:00Z,28.1560,-82.7580,7.0,0.14,75.83,0.88,'1111122,1111122,1111122' 
COMPS,ioos:station:USF.COMPS:TAR:1,2014-10-01T01:00:00Z,28.1560,-82.7580,7.0,0.54,103.38,0.97,'1111122,1111122,1111122' 
COMPS,ioos:station:USF.COMPS:TAR:1,2014-10-01T01:06:00Z,28.1560,-82.7580,7.0,0.5,113.82,1.07,'1111122,1111122,1111122' 
COMPS,ioos:station:USF.COMPS:TAR:1,2014-10-01T01:12:00Z,28.1560,-82.7580,7.0,0.52,79.31,1.17,'1111122,1111122,1111122' 
COMPS,ioos:station:USF.COMPS:TAR:1,2014-10-01T01:18:00Z,28.1560,-82.7580,7.0,0.75,68.88,1.37,'1111122,1111122,1111122' 
COMPS,ioos:station:USF.COMPS:TAR:1,2014-10-01T01:24:00Z,28.1560,-82.7580,7.0,0.6,55.15,0.97,'1111122,1111122,1111122' 
COMPS,ioos:station:USF.COMPS:TAR:1,2014-10-01T01:30:00Z,28.1560,-82.7580,7.0,0.71,77.04,1.37,'1111122,1111122,1111122' 
COMPS,ioos:station:USF.COMPS:TAR:1,2014-10-01T01:36:00Z,28.1560,-82.7580,7.0,0.67,79.03,1.46,'1111122,1111122,1111122' 
COMPS,ioos:station:USF.COMPS:TAR:1,2014-10-01T01:42:00Z,28.1560,-82.7580,7.0,0.79,85.39,1.27,'1111122,1111122,1111122' 
COMPS,ioos:station:USF.COMPS:TAR:1,2014-10-01T01:48:00Z,28.1560,-82.7580,7.0,0.75,89.86,1.37,'1111122,1111122,1111122' 
COMPS,ioos:station:USF.COMPS:TAR:1,2014-10-01T01:54:00Z,28.1560,-82.7580,7.0,0.59,56.54,1.27,'1111122,1111122,1111122' 
COMPS,ioos:station:USF.COMPS:TAR:1,2014-10-01T02:00:00Z,28.1560,-82.7580,7.0,0.97,46.87,1.66,'1111122,1111122,1111122' 
COMPS,ioos:station:USF.COMPS:TAR:1,2014-10-01T02:06:00Z,28.1560,-82.7580,7.0,1.15,45.83,1.95,'1111122,1111122,1111122' 
COMPS,ioos:station:USF.COMPS:TAR:1,2014-10-01T02:12:00Z,28.1560,-82.7580,7.0,1.03,45.9,2.25,'1111122,1111122,1111122' 
COMPS,ioos:station:USF.COMPS:TAR:1,2014-10-01T02:18:00Z,28.1560,-82.7580,7.0,1.18,43.79,2.15,'1111122,1111122,1111122' 
COMPS,ioos:station:USF.COMPS:TAR:1,2014-10-01T02:24:00Z,28.1560,-82.7580,7.0,1.61,44.82,2.64,'1111122,1111122,1111122' 
COMPS,ioos:station:USF.COMPS:TAR:1,2014-10-01T02:30:00Z,28.1560,-82.7580,7.0,0.93,71.7,1.95,'1111122,1111122,1111122' 
COMPS,ioos:station:USF.COMPS:TAR:1,2014-10-01T02:36:00Z,28.1560,-82.7580,7.0,0.58,125.13,1.37,'1111122,1111122,1111122' 
COMPS,ioos:station:USF.COMPS:TAR:1,2014-10-01T02:42:00Z,28.1560,-82.7580,7.0,0.87,65.32,1.66,'1111122,1111122,1111122' 
COMPS,ioos:station:USF.COMPS:TAR:1,2014-10-01T02:48:00Z,28.1560,-82.7580,7.0,1.91,44.29,2.84,'1111122,1111122,1111122' 
COMPS,ioos:station:USF.COMPS:TAR:1,2014-10-01T02:54:00Z,28.1560,-82.7580,7.0,1.58,45.97,2.64,'1111122,1111122,1111122' 
COMPS,ioos:station:USF.COMPS:TAR:1,2014-10-01T03:00:00Z,28.1560,-82.7580,7.0,1.28,47.38,2.25,'1111122,1111122,1111122' 
COMPS,ioos:station:USF.COMPS:TAR:1,2014-10-01T03:06:00Z,28.1560,-82.7580,7.0,1.81,36.13,2.45,'1111122,1111122,1111122' 
COMPS,ioos:station:USF.COMPS:TAR:1,2014-10-01T03:12:00Z,28.1560,-82.7580,7.0,1.55,30.53,2.45,'1111122,1111122,1111122' 
COMPS,ioos:station:USF.COMPS:TAR:1,2014-10-01T03:18:00Z,28.1560,-82.7580,7.0,1.44,56.75,2.54,'1111122,1111122,1111122' 
COMPS,ioos:station:USF.COMPS:TAR:1,2014-10-01T03:24:00Z,28.1560,-82.7580,7.0,0.98,89.61,1.66,'1111122,1111122,1111122' 
COMPS,ioos:station:USF.COMPS:TAR:1,2014-10-01T03:30:00Z,28.1560,-82.7580,7.0,1.04,56.26,2.15,'1111122,1111122,1111122' 
COMPS,ioos:station:USF.COMPS:TAR:1,2014-10-01T03:36:00Z,28.1560,-82.7580,7.0,0.8,57.08,1.86,'1111122,1111122,1111122' 
COMPS,ioos:station:USF.COMPS:TAR:1,2014-10-01T03:42:00Z,28.1560,-82.7580,7.0,0.67,53.16,1.46,'1111122,1111122,1111122' 
COMPS,ioos:station:USF.COMPS:TAR:1,2014-10-01T03:48:00Z,28.1560,-82.7580,7.0,0.85,83.09,2.84,'1111122,1111122,1111122' 
COMPS,ioos:station:USF.COMPS:TAR:1,2014-10-01T03:54:00Z,28.1560,-82.7580,7.0,1.95,49.01,3.33,'1111122,1111122,1111122' 
COMPS,ioos:station:USF.COMPS:TAR:1,2014-10-01T04:00:00Z,28.1560,-82.7580,7.0,1.62,49.62,3.23,'1111122,1111122,1111122' 
COMPS,ioos:station:USF.COMPS:TAR:1,2014-10-01T04:06:00Z,28.1560,-82.7580,7.0,1.67,38.54,2.84,'1111122,1111122,1111122' 
COMPS,ioos:station:USF.COMPS:TAR:1,2014-10-01T04:12:00Z,28.1560,-82.7580,7.0,2.13,42.67,3.33,'1111122,1111122,1111122' 
COMPS,ioos:station:USF.COMPS:TAR:1,2014-10-01T04:18:00Z,28.1560,-82.7580,7.0,1.46,53.02,2.84,'1111122,1111122,1111122' 
COMPS,ioos:station:USF.COMPS:TAR:1,2014-10-01T04:24:00Z,28.1560,-82.7580,7.0,1.26,49.41,2.64,'1111122,1111122,1111122' 
COMPS,ioos:station:USF.COMPS:TAR:1,2014-10-01T04:30:00Z,28.1560,-82.7580,7.0,1.2,49.86,2.45,'1111122,1111122,1111122' 
COMPS,ioos:station:USF.COMPS:TAR:1,2014-10-01T04:36:00Z,28.1560,-82.7580,7.0,1.62,65.04,2.93,'1111122,1111122,1111122' 
COMPS,ioos:station:USF.COMPS:TAR:1,2014-10-01T04:42:00Z,28.1560,-82.7580,7.0,1.33,72.77,3.03,'1111122,1111122,1111122' 
COMPS,ioos:station:USF.COMPS:TAR:1,2014-10-01T04:48:00Z,28.1560,-82.7580,7.0,1.31,55.04,2.25,'1111122,1111122,1111122' 
COMPS,ioos:station:USF.COMPS:TAR:1,2014-10-01T04:54:00Z,28.1560,-82.7580,7.0,1.67,49.6,3.03,'1111122,1111122,1111122' 
COMPS,ioos:station:USF.COMPS:TAR:1,2014-10-01T05:00:00Z,28.1560,-82.7580,7.0,1.4,67.12,2.84,'1111122,1111122,1111122' 
COMPS,ioos:station:USF.COMPS:TAR:1,2014-10-01T05:06:00Z,28.1560,-82.7580,7.0,1.77,44.54,3.03,'1111122,1111122,1111122' 
COMPS,ioos:station:USF.COMPS:TAR:1,2014-10-01T05:12:00Z,28.1560,-82.7580,7.0,1.76,63.11,2.64,'1111122,1111122,1111122' 
COMPS,ioos:station:USF.COMPS:TAR:1,2014-10-01T05:18:00Z,28.1560,-82.7580,7.0,1.33,76.91,2.84,'1111122,1111122,1111122' 
COMPS,ioos:station:USF.COMPS:TAR:1,2014-10-01T05:24:00Z,28.1560,-82.7580,7.0,1.36,57.17,2.54,'1111122,1111122,1111122' 
COMPS,ioos:station:USF.COMPS:TAR:1,2014-10-01T05:30:00Z,28.1560,-82.7580,7.0,1.41,59.66,3.23,'1111122,1111122,1111122' 
COMPS,ioos:station:USF.COMPS:TAR:1,2014-10-01T05:36:00Z,28.1560,-82.7580,7.0,1.47,56.12,2.84,'1111122,1111122,1111122' 
COMPS,ioos:station:USF.COMPS:TAR:1,2014-10-01T05:42:00Z,28.1560,-82.7580,7.0,1.78,48.6,3.33,'1111122,1111122,1111122' 
COMPS,ioos:station:USF.COMPS:TAR:1,2014-10-01T05:48:00Z,28.1560,-82.7580,7.0,2.32,38.14,3.52,'1111122,1111122,1111122' 
COMPS,ioos:station:USF.COMPS:TAR:1,2014-10-01T05:54:00Z,28.1560,-82.7580,7.0,1.64,62.03,3.33,'1111122,1111122,1111122' 
COMPS,ioos:station:USF.COMPS:TAR:1,2014-10-01T06:00:00Z,28.1560,-82.7580,7.0,1.92,52.04,4.31,'1111122,1111122,1111122' 
COMPS,ioos:station:USF.COMPS:TAR:1,2014-10-01T06:06:00Z,28.1560,-82.7580,7.0,1.98,53.6,3.23,'1111122,1111122,1111122' 
COMPS,ioos:station:USF.COMPS:TAR:1,2014-10-01T06:12:00Z,28.1560,-82.7580,7.0,1.92,57.85,3.82,'1111122,1111122,1111122' 
COMPS,ioos:station:USF.COMPS:TAR:1,2014-10-01T06:18:00Z,28.1560,-82.7580,7.0,2.13,49.85,4.01,'1111122,1111122,1111122' 
COMPS,ioos:station:USF.COMPS:TAR:1,2014-10-01T06:24:00Z,28.1560,-82.7580,7.0,2.2,47.43,3.13,'1111122,1111122,1111122' 
COMPS,ioos:station:USF.COMPS:TAR:1,2014-10-01T06:30:00Z,28.1560,-82.7580,7.0,1.88,44.91,3.42,'1111122,1111122,1111122' 
COMPS,ioos:station:USF.COMPS:TAR:1,2014-10-01T06:36:00Z,28.1560,-82.7580,7.0,1.73,42.19,3.03,'1111122,1111122,1111122' 
COMPS,ioos:station:USF.COMPS:TAR:1,2014-10-01T06:42:00Z,28.1560,-82.7580,7.0,1.96,50.63,3.52,'1111122,1111122,1111122' 
COMPS,ioos:station:USF.COMPS:TAR:1,2014-10-01T06:48:00Z,28.1560,-82.7580,7.0,1.53,56.17,3.52,'1111122,1111122,1111122' 
COMPS,ioos:station:USF.COMPS:TAR:1,2014-10-01T06:54:00Z,28.1560,-82.7580,7.0,1.55,47.69,3.13,'1111122,1111122,1111122' 
COMPS,ioos:station:USF.COMPS:TAR:1,2014-10-01T07:00:00Z,28.1560,-82.7580,7.0,1.77,52.64,2.74,'1111122,1111122,1111122' 
COMPS,ioos:station:USF.COMPS:TAR:1,2014-10-01T07:06:00Z,28.1560,-82.7580,7.0,1.88,50.23,3.42,'1111122,1111122,1111122' 
COMPS,ioos:station:USF.COMPS:TAR:1,2014-10-01T07:12:00Z,28.1560,-82.7580,7.0,2.43,39.79,4.6,'1111122,1111122,1111122' 
COMPS,ioos:station:USF.COMPS:TAR:1,2014-10-01T07:18:00Z,28.1560,-82.7580,7.0,1.98,46.78,3.52,'1111122,1111122,1111122' 
COMPS,ioos:station:USF.COMPS:TAR:1,2014-10-01T07:24:00Z,28.1560,-82.7580,7.0,2.38,39.17,4.31,'1111122,1111122,1111122' 
COMPS,ioos:station:USF.COMPS:TAR:1,2014-10-01T07:30:00Z,28.1560,-82.7580,7.0,2.82,40.4,4.21,'1111122,1111122,1111122' 
COMPS,ioos:station:USF.COMPS:TAR:1,2014-10-01T07:36:00Z,28.1560,-82.7580,7.0,2.95,40.56,4.11,'1111122,1111122,1111122' 
COMPS,ioos:station:USF.COMPS:TAR:1,2014-10-01T07:42:00Z,28.1560,-82.7580,7.0,2.78,40.43,4.6,'1111122,1111122,1111122' 
COMPS,ioos:station:USF.COMPS:TAR:1,2014-10-01T07:48:00Z,28.1560,-82.7580,7.0,2.59,44.34,3.52,'1111122,1111122,1111122' 
COMPS,ioos:station:USF.COMPS:TAR:1,2014-10-01T07:54:00Z,28.1560,-82.7580,7.0,3.27,39.8,5.29,'1111122,1111122,1111122' 
COMPS,ioos:station:USF.COMPS:TAR:1,2014-10-01T08:00:00Z,28.1560,-82.7580,7.0,3.18,41.36,4.99,'1111122,1111122,1111122' 
COMPS,ioos:station:USF.COMPS:TAR:1,2014-10-01T08:06:00Z,28.1560,-82.7580,7.0,2.81,42.41,4.99,'1111122,1111122,1111122' 
COMPS,ioos:station:USF.COMPS:TAR:1,2014-10-01T08:12:00Z,28.1560,-82.7580,7.0,3.11,40.19,4.8,'1111122,1111122,1111122' 
COMPS,ioos:station:USF.COMPS:TAR:1,2014-10-01T08:18:00Z,28.1560,-82.7580,7.0,2.94,36.84,4.8,'1111122,1111122,1111122' 
COMPS,ioos:station:USF.COMPS:TAR:1,2014-10-01T08:24:00Z,28.1560,-82.7580,7.0,2.46,32.86,4.01,'1111122,1111122,1111122' 
COMPS,ioos:station:USF.COMPS:TAR:1,2014-10-01T08:30:00Z,28.1560,-82.7580,7.0,2.89,32.88,4.31,'1111122,1111122,1111122' 
COMPS,ioos:station:USF.COMPS:TAR:1,2014-10-01T08:36:00Z,28.1560,-82.7580,7.0,3.2,40.42,4.99,'1111122,1111122,1111122' 
COMPS,ioos:station:USF.COMPS:TAR:1,2014-10-01T08:42:00Z,28.1560,-82.7580,7.0,2.77,37.86,4.8,'1111122,1111122,1111122' 
COMPS,ioos:station:USF.COMPS:TAR:1,2014-10-01T08:48:00Z,28.1560,-82.7580,7.0,2.78,36.95,5.39,'1111122,1111122,1111122' 
COMPS,ioos:station:USF.COMPS:TAR:1,2014-10-01T08:54:00Z,28.1560,-82.7580,7.0,2.84,44.95,4.01,'1111122,1111122,1111122' 
COMPS,ioos:station:USF.COMPS:TAR:1,2014-10-01T09:00:00Z,28.1560,-82.7580,7.0,2.44,39.58,3.82,'1111122,1111122,1111122' 
COMPS,ioos:station:USF.COMPS:TAR:1,2014-10-01T09:06:00Z,28.1560,-82.7580,7.0,1.8,41.96,3.33,'1111122,1111122,1111122' 
COMPS,ioos:station:USF.COMPS:TAR:1,2014-10-01T09:12:00Z,28.1560,-82.7580,7.0,1.98,46.84,3.23,'1111122,1111122,1111122' 
COMPS,ioos:station:USF.COMPS:TAR:1,2014-10-01T09:18:00Z,28.1560,-82.7580,7.0,1.72,45.78,2.93,'1111122,1111122,1111122' 
COMPS,ioos:station:USF.COMPS:TAR:1,2014-10-01T09:24:00Z,28.1560,-82.7580,7.0,2.14,39.39,3.82,'1111122,1111122,1111122' 
COMPS,ioos:station:USF.COMPS:TAR:1,2014-10-01T09:30:00Z,28.1560,-82.7580,7.0,2.44,36.2,4.41,'1111122,1111122,1111122' 
COMPS,ioos:station:USF.COMPS:TAR:1,2014-10-01T09:36:00Z,28.1560,-82.7580,7.0,2.29,36.03,3.33,'1111122,1111122,1111122' 
COMPS,ioos:station:USF.COMPS:TAR:1,2014-10-01T09:42:00Z,28.1560,-82.7580,7.0,2.1,40.35,3.23,'1111122,1111122,1111122' 
COMPS,ioos:station:USF.COMPS:TAR:1,2014-10-01T09:48:00Z,28.1560,-82.7580,7.0,1.45,36.45,2.45,'1111122,1111122,1111122' 
COMPS,ioos:station:USF.COMPS:TAR:1,2014-10-01T09:54:00Z,28.1560,-82.7580,7.0,2.0,40.73,3.52,'1111122,1111122,1111122' 
COMPS,ioos:station:USF.COMPS:TAR:1,2014-10-01T10:00:00Z,28.1560,-82.7580,7.0,2.13,26.95,3.13,'1111122,1111122,1111122' 
COMPS,ioos:station:USF.COMPS:TAR:1,2014-10-01T10:06:00Z,28.1560,-82.7580,7.0,2.03,33.89,3.42,'1111122,1111122,1111122' 
COMPS,ioos:station:USF.COMPS:TAR:1,2014-10-01T10:12:00Z,28.1560,-82.7580,7.0,1.99,35.5,2.93,'1111122,1111122,1111122' 
COMPS,ioos:station:USF.COMPS:TAR:1,2014-10-01T10:18:00Z,28.1560,-82.7580,7.0,1.76,40.99,2.64,'1111122,1111122,1111122' 
COMPS,ioos:station:USF.COMPS:TAR:1,2014-10-01T10:24:00Z,28.1560,-82.7580,7.0,2.31,40.03,3.42,'1111122,1111122,1111122' 
COMPS,ioos:station:USF.COMPS:TAR:1,2014-10-01T10:30:00Z,28.1560,-82.7580,7.0,2.53,45.21,4.11,'1111122,1111122,1111122' 
COMPS,ioos:station:USF.COMPS:TAR:1,2014-10-01T10:36:00Z,28.1560,-82.7580,7.0,2.37,33.62,3.72,'1111122,1111122,1111122' 
COMPS,ioos:station:USF.COMPS:TAR:1,2014-10-01T10:42:00Z,28.1560,-82.7580,7.0,1.94,39.09,4.01,'1111122,1111122,1111122' 
COMPS,ioos:station:USF.COMPS:TAR:1,2014-10-01T10:48:00Z,28.1560,-82.7580,7.0,2.25,41.85,3.62,'1111122,1111122,1111122' 
COMPS,ioos:station:USF.COMPS:TAR:1,2014-10-01T10:54:00Z,28.1560,-82.7580,7.0,1.88,42.47,3.13,'1111122,1111122,1111122' 
COMPS,ioos:station:USF.COMPS:TAR:1,2014-10-01T11:00:00Z,28.1560,-82.7580,7.0,1.62,41.96,2.25,'1111122,1111122,1111122' 
COMPS,ioos:station:USF.COMPS:TAR:1,2014-10-01T11:06:00Z,28.1560,-82.7580,7.0,1.89,40.77,3.03,'1111122,1111122,1111122' 
COMPS,ioos:station:USF.COMPS:TAR:1,2014-10-01T11:12:00Z,28.1560,-82.7580,7.0,1.69,41.31,2.93,'1111122,1111122,1111122' 
COMPS,ioos:station:USF.COMPS:TAR:1,2014-10-01T11:18:00Z,28.1560,-82.7580,7.0,2.02,43.13,2.84,'1111122,1111122,1111122' 
COMPS,ioos:station:USF.COMPS:TAR:1,2014-10-01T11:24:00Z,28.1560,-82.7580,7.0,1.89,32.04,2.74,'1111122,1111122,1111122' 
COMPS,ioos:station:USF.COMPS:TAR:1,2014-10-01T11:30:00Z,28.1560,-82.7580,7.0,1.58,32.87,2.54,'1111122,1111122,1111122' 
COMPS,ioos:station:USF.COMPS:TAR:1,2014-10-01T11:36:00Z,28.1560,-82.7580,7.0,1.49,34.58,2.45,'1111122,1111122,1111122' 
COMPS,ioos:station:USF.COMPS:TAR:1,2014-10-01T11:42:00Z,28.1560,-82.7580,7.0,1.84,31.45,2.84,'1111122,1111122,1111122' 
COMPS,ioos:station:USF.COMPS:TAR:1,2014-10-01T11:48:00Z,28.1560,-82.7580,7.0,1.56,38.26,2.45,'1111122,1111122,1111122' 
COMPS,ioos:station:USF.COMPS:TAR:1,2014-10-01T11:54:00Z,28.1560,-82.7580,7.0,1.51,46.22,2.84,'1111122,1111122,1111122' 
COMPS,ioos:station:USF.COMPS:TAR:1,2014-10-01T12:00:00Z,28.1560,-82.7580,7.0,1.43,43.23,2.45,'1111122,1111122,1111122' 
COMPS,ioos:station:USF.COMPS:TAR:1,2014-10-01T12:06:00Z,28.1560,-82.7580,7.0,2.01,35.94,2.93,'1111122,1111122,1111122' 
COMPS,ioos:station:USF.COMPS:TAR:1,2014-10-01T12:12:00Z,28.1560,-82.7580,7.0,1.63,27.64,2.64,'1111122,1111122,1111122' 
COMPS,ioos:station:USF.COMPS:TAR:1,2014-10-01T12:18:00Z,28.1560,-82.7580,7.0,1.25,36.78,2.05,'1111122,1111122,1111122' 
COMPS,ioos:station:USF.COMPS:TAR:1,2014-10-01T12:24:00Z,28.1560,-82.7580,7.0,1.42,43.1,2.25,'1111122,1111122,1111122' 
COMPS,ioos:station:USF.COMPS:TAR:1,2014-10-01T12:30:00Z,28.1560,-82.7580,7.0,1.75,44.5,2.64,'1111122,1111122,1111122' 
COMPS,ioos:station:USF.COMPS:TAR:1,2014-10-01T12:36:00Z,28.1560,-82.7580,7.0,1.26,54.91,2.25,'1111122,1111122,1111122' 
COMPS,ioos:station:USF.COMPS:TAR:1,2014-10-01T12:42:00Z,28.1560,-82.7580,7.0,1.5,41.61,2.74,'1111122,1111122,1111122' 
COMPS,ioos:station:USF.COMPS:TAR:1,2014-10-01T12:48:00Z,28.1560,-82.7580,7.0,1.06,71.62,1.95,'1111122,1111122,1111122' 
COMPS,ioos:station:USF.COMPS:TAR:1,2014-10-01T12:54:00Z,28.1560,-82.7580,7.0,1.36,44.4,2.35,'1111122,1111122,1111122' 
COMPS,ioos:station:USF.COMPS:TAR:1,2014-10-01T13:00:00Z,28.1560,-82.7580,7.0,1.62,40.0,2.93,'1111122,1111122,1111122' 
COMPS,ioos:station:USF.COMPS:TAR:1,2014-10-01T13:06:00Z,28.1560,-82.7580,7.0,1.25,41.95,2.15,'1111122,1111122,1111122' 
COMPS,ioos:station:USF.COMPS:TAR:1,2014-10-01T13:12:00Z,28.1560,-82.7580,7.0,1.15,51.29,2.64,'1111122,1111122,1111122' 
COMPS,ioos:station:USF.COMPS:TAR:1,2014-10-01T13:18:00Z,28.1560,-82.7580,7.0,0.88,91.03,2.05,'1111122,1111122,1111122' 
COMPS,ioos:station:USF.COMPS:TAR:1,2014-10-01T13:24:00Z,28.1560,-82.7580,7.0,1.23,100.27,1.95,'1111122,1111122,1111122' 
COMPS,ioos:station:USF.COMPS:TAR:1,2014-10-01T13:30:00Z,28.1560,-82.7580,7.0,1.32,97.52,2.15,'1111122,1111122,1111122' 
COMPS,ioos:station:USF.COMPS:TAR:1,2014-10-01T13:36:00Z,28.1560,-82.7580,7.0,1.15,61.21,1.95,'1111122,1111122,1111122' 
COMPS,ioos:station:USF.COMPS:TAR:1,2014-10-01T13:42:00Z,28.1560,-82.7580,7.0,0.94,38.06,2.35,'1111122,1111122,1111122' 
COMPS,ioos:station:USF.COMPS:TAR:1,2014-10-01T13:48:00Z,28.1560,-82.7580,7.0,1.33,41.48,1.86,'1111122,1111122,1111122' 
COMPS,ioos:station:USF.COMPS:TAR:1,2014-10-01T13:54:00Z,28.1560,-82.7580,7.0,0.96,52.23,1.66,'1111122,1111122,1111122' 
COMPS,ioos:station:USF.COMPS:TAR:1,2014-10-01T14:00:00Z,28.1560,-82.7580,7.0,0.75,45.08,1.46,'1111122,1111122,1111122' 
COMPS,ioos:station:USF.COMPS:TAR:1,2014-10-01T14:06:00Z,28.1560,-82.7580,7.0,0.5,54.66,1.07,'1111122,1111122,1111122' 
COMPS,ioos:station:USF.COMPS:TAR:1,2014-10-01T14:12:00Z,28.1560,-82.7580,7.0,1.01,43.07,1.66,'1111122,1111122,1111122' 
COMPS,ioos:station:USF.COMPS:TAR:1,2014-10-01T14:18:00Z,28.1560,-82.7580,7.0,0.91,33.81,1.37,'1111122,1111122,1111122' 
COMPS,ioos:station:USF.COMPS:TAR:1,2014-10-01T14:24:00Z,28.1560,-82.7580,7.0,0.67,34.83,1.27,'1111122,1111122,1111122' 
COMPS,ioos:station:USF.COMPS:TAR:1,2014-10-01T14:30:00Z,28.1560,-82.7580,7.0,0.39,59.95,1.17,'1111122,1111122,1111122' 
COMPS,ioos:station:USF.COMPS:TAR:1,2014-10-01T14:36:00Z,28.1560,-82.7580,7.0,0.75,78.07,1.27,'1111122,1111122,1111122' 
COMPS,ioos:station:USF.COMPS:TAR:1,2014-10-01T14:42:00Z,28.1560,-82.7580,7.0,0.81,108.55,1.66,'1111122,1111122,1111122' 
COMPS,ioos:station:USF.COMPS:TAR:1,2014-10-01T14:48:00Z,28.1560,-82.7580,7.0,0.47,82.31,1.46,'1111122,1111122,1111122' 
COMPS,ioos:station:USF.COMPS:TAR:1,2014-10-01T14:54:00Z,28.1560,-82.7580,7.0,1.09,56.49,1.86,'1111122,1111122,1111122' 
COMPS,ioos:station:USF.COMPS:TAR:1,2014-10-01T15:00:00Z,28.1560,-82.7580,7.0,1.09,36.82,2.05,'1111122,1111122,1111122' 
COMPS,ioos:station:USF.COMPS:TAR:1,2014-10-01T15:06:00Z,28.1560,-82.7580,7.0,0.58,45.68,1.27,'1111122,1111122,1111122' 
COMPS,ioos:station:USF.COMPS:TAR:1,2014-10-01T15:12:00Z,28.1560,-82.7580,7.0,1.09,37.04,2.05,'1111122,1111122,1111122' 
COMPS,ioos:station:USF.COMPS:TAR:1,2014-10-01T15:18:00Z,28.1560,-82.7580,7.0,1.09,62.15,2.05,'1111122,1111122,1111122' 
COMPS,ioos:station:USF.COMPS:TAR:1,2014-10-01T15:24:00Z,28.1560,-82.7580,7.0,0.82,108.07,1.37,'1111122,1111122,1111122' 
COMPS,ioos:station:USF.COMPS:TAR:1,2014-10-01T15:30:00Z,28.1560,-82.7580,7.0,0.83,78.55,1.76,'1111122,1111122,1111122' 
COMPS,ioos:station:USF.COMPS:TAR:1,2014-10-01T15:36:00Z,28.1560,-82.7580,7.0,0.59,99.15,1.37,'1111122,1111122,1111122' 
COMPS,ioos:station:USF.COMPS:TAR:1,2014-10-01T15:42:00Z,28.1560,-82.7580,7.0,0.76,138.53,1.17,'1111122,1111122,1111122' 
COMPS,ioos:station:USF.COMPS:TAR:1,2014-10-01T15:48:00Z,28.1560,-82.7580,7.0,0.69,62.03,1.66,'1111122,1111122,1111122' 
COMPS,ioos:station:USF.COMPS:TAR:1,2014-10-01T15:54:00Z,28.1560,-82.7580,7.0,0.63,172.54,1.46,'1111122,1111122,1111122' 
COMPS,ioos:station:USF.COMPS:TAR:1,2014-10-01T16:00:00Z,28.1560,-82.7580,7.0,0.69,56.63,1.46,'1111122,1111122,1111122' 
COMPS,ioos:station:USF.COMPS:TAR:1,2014-10-01T16:06:00Z,28.1560,-82.7580,7.0,1.17,51.46,2.15,'1111122,1111122,1111122' 
COMPS,ioos:station:USF.COMPS:TAR:1,2014-10-01T16:12:00Z,28.1560,-82.7580,7.0,0.53,70.17,1.17,'1111122,1111122,1111122' 
COMPS,ioos:station:USF.COMPS:TAR:1,2014-10-01T16:18:00Z,28.1560,-82.7580,7.0,0.92,260.29,2.15,'1111122,1111122,1111122' 
COMPS,ioos:station:USF.COMPS:TAR:1,2014-10-01T16:24:00Z,28.1560,-82.7580,7.0,1.2,225.05,2.25,'1111122,1111122,1111122' 
COMPS,ioos:station:USF.COMPS:TAR:1,2014-10-01T16:30:00Z,28.1560,-82.7580,7.0,0.98,297.88,2.25,'1111122,1111122,1111122' 
COMPS,ioos:station:USF.COMPS:TAR:1,2014-10-01T16:36:00Z,28.1560,-82.7580,7.0,2.05,294.41,3.82,'1111122,1111122,1111122' 
COMPS,ioos:station:USF.COMPS:TAR:1,2014-10-01T16:42:00Z,28.1560,-82.7580,7.0,1.94,331.26,2.84,'1111122,1111122,1111122' 
COMPS,ioos:station:USF.COMPS:TAR:1,2014-10-01T16:48:00Z,28.1560,-82.7580,7.0,1.48,330.26,2.45,'1111122,1111122,1111122' 
COMPS,ioos:station:USF.COMPS:TAR:1,2014-10-01T16:54:00Z,28.1560,-82.7580,7.0,1.68,319.48,3.42,'1111122,1111122,1111122' 
COMPS,ioos:station:USF.COMPS:TAR:1,2014-10-01T17:00:00Z,28.1560,-82.7580,7.0,1.38,299.02,2.45,'1111122,1111122,1111122' 
COMPS,ioos:station:USF.COMPS:TAR:1,2014-10-01T17:06:00Z,28.1560,-82.7580,7.0,1.54,316.02,2.54,'1111122,1111122,1111122' 
COMPS,ioos:station:USF.COMPS:TAR:1,2014-10-01T17:12:00Z,28.1560,-82.7580,7.0,1.62,315.06,3.03,'1111122,1111122,1111122' 
COMPS,ioos:station:USF.COMPS:TAR:1,2014-10-01T17:18:00Z,28.1560,-82.7580,7.0,1.21,316.5,2.74,'1111122,1111122,1111122' 
COMPS,ioos:station:USF.COMPS:TAR:1,2014-10-01T17:24:00Z,28.1560,-82.7580,7.0,1.58,325.15,2.84,'1111122,1111122,1111122' 
COMPS,ioos:station:USF.COMPS:TAR:1,2014-10-01T17:30:00Z,28.1560,-82.7580,7.0,1.63,293.51,2.93,'1111122,1111122,1111122' 
COMPS,ioos:station:USF.COMPS:TAR:1,2014-10-01T17:36:00Z,28.1560,-82.7580,7.0,1.53,308.98,2.93,'1111122,1111122,1111122' 
COMPS,ioos:station:USF.COMPS:TAR:1,2014-10-01T17:42:00Z,28.1560,-82.7580,7.0,1.88,296.98,3.23,'1111122,1111122,1111122' 
COMPS,ioos:station:USF.COMPS:TAR:1,2014-10-01T17:48:00Z,28.1560,-82.7580,7.0,1.88,310.99,2.93,'1111122,1111122,1111122' 
COMPS,ioos:station:USF.COMPS:TAR:1,2014-10-01T17:54:00Z,28.1560,-82.7580,7.0,1.81,273.6,3.33,'1111122,1111122,1111122' 
COMPS,ioos:station:USF.COMPS:TAR:1,2014-10-01T18:00:00Z,28.1560,-82.7580,7.0,1.53,276.84,3.03,'1111122,1111122,1111122' 
COMPS,ioos:station:USF.COMPS:TAR:1,2014-10-01T18:06:00Z,28.1560,-82.7580,7.0,1.71,288.96,3.03,'1111122,1111122,1111122' 
COMPS,ioos:station:USF.COMPS:TAR:1,2014-10-01T18:12:00Z,28.1560,-82.7580,7.0,2.17,295.29,3.52,'1111122,1111122,1111122' 
COMPS,ioos:station:USF.COMPS:TAR:1,2014-10-01T18:18:00Z,28.1560,-82.7580,7.0,1.64,279.91,2.84,'1111122,1111122,1111122' 
COMPS,ioos:station:USF.COMPS:TAR:1,2014-10-01T18:24:00Z,28.1560,-82.7580,7.0,1.92,251.44,3.33,'1111122,1111122,1111122' 
COMPS,ioos:station:USF.COMPS:TAR:1,2014-10-01T18:30:00Z,28.1560,-82.7580,7.0,1.81,270.72,3.13,'1111122,1111122,1111122' 
COMPS,ioos:station:USF.COMPS:TAR:1,2014-10-01T18:36:00Z,28.1560,-82.7580,7.0,2.39,280.97,3.82,'1111122,1111122,1111122' 
COMPS,ioos:station:USF.COMPS:TAR:1,2014-10-01T18:42:00Z,28.1560,-82.7580,7.0,2.31,291.83,4.01,'1111122,1111122,1111122' 
COMPS,ioos:station:USF.COMPS:TAR:1,2014-10-01T18:48:00Z,28.1560,-82.7580,7.0,1.88,281.31,3.23,'1111122,1111122,1111122' 
COMPS,ioos:station:USF.COMPS:TAR:1,2014-10-01T18:54:00Z,28.1560,-82.7580,7.0,1.87,283.9,3.91,'1111122,1111122,1111122' 
COMPS,ioos:station:USF.COMPS:TAR:1,2014-10-01T19:00:00Z,28.1560,-82.7580,7.0,1.96,284.43,3.82,'1111122,1111122,1111122' 
COMPS,ioos:station:USF.COMPS:TAR:1,2014-10-01T19:06:00Z,28.1560,-82.7580,7.0,2.08,273.05,3.42,'1111122,1111122,1111122' 
COMPS,ioos:station:USF.COMPS:TAR:1,2014-10-01T19:12:00Z,28.1560,-82.7580,7.0,2.04,294.55,3.03,'1111122,1111122,1111122' 
COMPS,ioos:station:USF.COMPS:TAR:1,2014-10-01T19:18:00Z,28.1560,-82.7580,7.0,1.51,270.84,3.23,'1111122,1111122,1111122' 
COMPS,ioos:station:USF.COMPS:TAR:1,2014-10-01T19:24:00Z,28.1560,-82.7580,7.0,2.43,229.45,3.91,'1111122,1111122,1111122' 
COMPS,ioos:station:USF.COMPS:TAR:1,2014-10-01T19:30:00Z,28.1560,-82.7580,7.0,2.46,302.41,4.31,'1111122,1111122,1111122' 
COMPS,ioos:station:USF.COMPS:TAR:1,2014-10-01T19:36:00Z,28.1560,-82.7580,7.0,2.55,272.81,3.72,'1111122,1111122,1111122' 
COMPS,ioos:station:USF.COMPS:TAR:1,2014-10-01T19:42:00Z,28.1560,-82.7580,7.0,1.98,323.2,3.52,'1111122,1111122,1111122' 
COMPS,ioos:station:USF.COMPS:TAR:1,2014-10-01T19:48:00Z,28.1560,-82.7580,7.0,2.56,315.51,3.62,'1111122,1111122,1111122' 